Crookston, MN

3:33 PM CST on February 14, 2016 (GMT -0600)
Crookston Municipal-Kirkwood

Weather History for KCKN - March, 2013

Change the Weather History Date:

Friday, March 15, 2013

  Actual Average Record
Temperature  
Mean Temperature 11 °F -  
Max Temperature 21 °F 29 °F 69 °F (2015)
Min Temperature 1 °F 13 °F -25 °F (1997)
Degree Days  
Heating Degree Days 54    
Moisture  
Dew Point 12 °F    
Average Humidity 83    
Maximum Humidity 93    
Minimum Humidity 68    
Precipitation  
Precipitation 0.00 in - - ()
Sea Level Pressure  
Sea Level Pressure 30.08 in    
Wind  
Wind Speed 12 mph (NNE)    
Max Wind Speed 16 mph    
Max Gust Speed 21 mph    
Visibility 7 miles    
Events Snow    
Averages and records for this station are not official NWS values.
T = Trace of Precipitation, MM = Missing Value Source: NWS Daily Summary

Daily Weather History Graph

Daily Weather History Graph

Search for Another Location

Airport or City:

Trip Planner

Search our weather history database for the weather conditions in past years. The results will help you decide how hot, cold, wet, or windy it might be!

Date:

Astronomy

Mar. 15, 2013 Rise Set
Actual Time 7:38 AM CDT 7:32 PM CDT
Civil Twilight 7:08 AM CDT 8:03 PM CDT
Nautical Twilight 6:32 AM CDT 8:39 PM CDT
Astronomical Twilight 5:55 AM CDT 9:16 PM CDT
Moon 9:10 AM CDT (3/15) No Moon Set
Length of Visible Light 12h 55m
Length of Day
11h 53m
Waxing Crescent, 15% of the Moon is Illuminated
Mar 15
Waxing Crescent
Mar 19
First Quarter
Mar 27
Full
Apr 2
Last Quarter
Apr 10
New

Hourly Weather History & Observations

Time (CDT) Temp. Windchill Dew Point Humidity Pressure Visibility Wind Dir Wind Speed Gust Speed Precip Events Conditions
12:14 AM 21.2 °F 7.3 °F 17.6 °F 86% 30.11 in 10.0 mi North 16.1 mph - N/A   Clear
12:34 AM 21.2 °F 9.5 °F 17.6 °F 86% 30.10 in 10.0 mi North 11.5 mph - N/A   Clear
12:54 AM 21.2 °F 9.5 °F 17.6 °F 86% 30.10 in 10.0 mi North 11.5 mph - N/A   Clear
1:15 AM 21.2 °F 8.9 °F 15.8 °F 80% 30.10 in 10.0 mi North 12.7 mph - N/A   Clear
1:34 AM 21.2 °F 9.5 °F 17.6 °F 86% 30.10 in 10.0 mi North 11.5 mph - N/A   Scattered Clouds
1:54 AM 21.2 °F 10.1 °F 17.6 °F 86% 30.10 in 10.0 mi North 10.4 mph - N/A   Clear
2:15 AM 21.2 °F 8.3 °F 15.8 °F 80% 30.11 in 10.0 mi North 13.8 mph - N/A   Clear
2:34 AM 21.2 °F 8.9 °F 15.8 °F 80% 30.12 in 10.0 mi North 12.7 mph - N/A   Clear
2:54 AM 21.2 °F 8.3 °F 15.8 °F 80% 30.12 in 10.0 mi North 13.8 mph - N/A   Clear
3:15 AM 19.4 °F 7.2 °F 15.8 °F 86% 30.11 in 10.0 mi North 11.5 mph - N/A   Clear
3:34 AM 19.4 °F 6.6 °F 15.8 °F 86% 30.11 in 10.0 mi North 12.7 mph - N/A   Clear
3:54 AM 19.4 °F 6.6 °F 15.8 °F 86% 30.11 in 10.0 mi North 12.7 mph - N/A   Clear
4:15 AM 19.4 °F 6.6 °F 15.8 °F 86% 30.10 in 10.0 mi NNE 12.7 mph - N/A   Clear
4:34 AM 19.4 °F 6.0 °F 15.8 °F 86% 30.10 in 10.0 mi NNE 13.8 mph 19.6 mph N/A   Clear
4:55 AM 19.4 °F 5.5 °F 15.8 °F 86% 30.09 in 10.0 mi NNE 15.0 mph - N/A   Clear
5:15 AM 19.4 °F 6.6 °F 15.8 °F 86% 30.08 in 10.0 mi NNE 12.7 mph - N/A   Clear
5:34 AM 19.4 °F 6.6 °F 14.0 °F 80% 30.08 in 10.0 mi NNE 12.7 mph - N/A   Clear
5:55 AM 19.4 °F 7.2 °F 15.8 °F 86% 30.08 in 10.0 mi NNE 11.5 mph - N/A   Clear
6:15 AM 17.6 °F 6.4 °F 15.8 °F 93% 30.09 in 10.0 mi NNE 9.2 mph - N/A   Clear
6:34 AM 19.4 °F 7.9 °F 14.0 °F 80% 30.09 in 10.0 mi NNE 10.4 mph 17.3 mph N/A   Scattered Clouds
6:55 AM 19.4 °F 7.2 °F 14.0 °F 80% 30.10 in 10.0 mi NNE 11.5 mph - N/A   Clear
7:15 AM 17.6 °F 5.0 °F 12.2 °F 79% 30.11 in 7.0 mi NNE 11.5 mph - N/A Snow Light Snow
7:34 AM 17.6 °F 5.0 °F 14.0 °F 86% 30.11 in 4.0 mi NNE 11.5 mph - N/A Snow Light Snow
7:55 AM 17.6 °F 7.3 °F 14.0 °F 86% 30.10 in 2.5 mi NNE 8.1 mph - N/A Snow Light Snow
8:14 AM 17.6 °F 7.3 °F 12.2 °F 79% 30.09 in 3.0 mi NE 8.1 mph - N/A Snow Light Snow
8:34 AM 17.6 °F 6.4 °F 12.2 °F 79% 30.08 in 4.0 mi NE 9.2 mph - N/A Snow Light Snow
8:55 AM 17.6 °F 7.3 °F 12.2 °F 79% 30.08 in 10.0 mi NE 8.1 mph - N/A   Mostly Cloudy
9:14 AM 17.6 °F 5.7 °F 12.2 °F 79% 30.09 in 10.0 mi NE 10.4 mph - N/A   Mostly Cloudy
9:34 AM 17.6 °F 6.4 °F 12.2 °F 79% 30.10 in 10.0 mi NNE 9.2 mph - N/A   Mostly Cloudy
9:55 AM 17.6 °F 7.3 °F 12.2 °F 79% 30.10 in 7.0 mi NNE 8.1 mph - N/A Snow Light Snow
10:14 AM 17.6 °F 6.4 °F 12.2 °F 79% 30.11 in 10.0 mi NNE 9.2 mph - N/A   Overcast
10:34 AM 17.6 °F 5.7 °F 12.2 °F 79% 30.09 in 10.0 mi NE 10.4 mph - N/A   Mostly Cloudy
10:55 AM 17.6 °F 5.0 °F 12.2 °F 79% 30.08 in 5.0 mi NE 11.5 mph - N/A   Haze
11:14 AM 17.6 °F 5.7 °F 12.2 °F 79% 30.09 in 10.0 mi NE 10.4 mph - N/A   Clear
11:34 AM 17.6 °F 4.3 °F 10.4 °F 73% 30.08 in 10.0 mi NE 12.7 mph - N/A   Clear
11:55 AM 17.6 °F 6.4 °F 12.2 °F 79% 30.08 in 10.0 mi NE 9.2 mph - N/A   Clear
12:14 PM 17.6 °F 6.4 °F 12.2 °F 79% 30.07 in 10.0 mi NE 9.2 mph - N/A   Clear
12:34 PM 17.6 °F 4.3 °F 10.4 °F 73% 30.06 in 10.0 mi ENE 12.7 mph - N/A   Clear
12:55 PM 17.6 °F 4.3 °F 10.4 °F 73% 30.05 in 10.0 mi ENE 12.7 mph - N/A   Clear
1:14 PM 19.4 °F 6.0 °F 10.4 °F 68% 30.05 in 10.0 mi ENE 13.8 mph - N/A   Clear
1:34 PM 19.4 °F 6.0 °F 10.4 °F 68% 30.03 in 10.0 mi ENE 13.8 mph - N/A   Clear
1:55 PM 19.4 °F 7.2 °F 10.4 °F 68% 30.03 in 10.0 mi NE 11.5 mph - N/A   Clear
2:14 PM 17.6 °F 5.0 °F 12.2 °F 79% 30.03 in 10.0 mi NE 11.5 mph - N/A   Clear
2:35 PM 17.6 °F 4.3 °F 12.2 °F 79% 30.02 in 3.0 mi NE 12.7 mph - N/A Snow Light Snow
2:54 PM 17.6 °F 6.4 °F 14.0 °F 86% 30.04 in 1.0 mi NNE 9.2 mph - N/A Snow Light Snow
3:14 PM 17.6 °F 5.0 °F 14.0 °F 86% 30.04 in 0.5 mi NNE 11.5 mph - N/A Snow Snow
3:35 PM 17.6 °F 4.3 °F 15.8 °F 93% 30.04 in 0.2 mi NNE 12.7 mph 17.3 mph N/A Snow Snow
3:54 PM 15.8 °F 0.3 °F 14.0 °F 93% 30.04 in 0.2 mi NNE 16.1 mph - N/A Snow Snow
4:15 PM 15.8 °F 0.3 °F 12.2 °F 86% 30.03 in 0.5 mi NNE 16.1 mph 19.6 mph N/A Snow Light Snow
4:35 PM 15.8 °F 0.3 °F 12.2 °F 86% 30.03 in 0.8 mi NNE 16.1 mph - N/A Snow Light Snow
4:54 PM 15.8 °F 0.9 °F 12.2 °F 86% 30.02 in 1.2 mi NNE 15.0 mph 20.7 mph N/A Snow Light Snow
5:15 PM 15.8 °F 0.9 °F 12.2 °F 86% 30.02 in 2.0 mi NE 15.0 mph - N/A Snow Light Snow
5:34 PM 15.8 °F 1.4 °F 12.2 °F 86% 30.03 in 2.0 mi NNE 13.8 mph 20.7 mph N/A Snow Light Snow
5:54 PM 15.8 °F 0.3 °F 10.4 °F 79% 30.03 in 3.0 mi NE 16.1 mph - N/A Snow Light Snow
6:15 PM 14.0 °F 0.5 °F 10.4 °F 86% 30.03 in 2.0 mi NE 11.5 mph - N/A Snow Light Snow
6:34 PM 14.0 °F -1.4 °F 10.4 °F 86% 30.03 in 1.0 mi NE 15.0 mph - N/A Snow Light Snow
6:54 PM 12.2 °F -1.8 °F 10.4 °F 92% 30.04 in 0.5 mi NNE 11.5 mph 18.4 mph N/A Snow Snow
7:14 PM 12.2 °F -1.8 °F 10.4 °F 92% 30.05 in 0.5 mi NNE 11.5 mph - N/A Snow Light Snow
7:34 PM 12.2 °F -2.5 °F 8.6 °F 85% 30.06 in 1.0 mi NNE 12.7 mph - N/A Snow Light Snow
7:55 PM 12.2 °F -2.5 °F 8.6 °F 85% 30.06 in 2.0 mi NE 12.7 mph 19.6 mph N/A Snow Light Snow
8:14 PM 12.2 °F -1.8 °F 8.6 °F 85% 30.08 in 1.2 mi NNE 11.5 mph - N/A Snow Light Snow
8:34 PM 12.2 °F -3.7 °F 8.6 °F 85% 30.09 in 1.5 mi NNE 15.0 mph - N/A Snow Light Snow
8:55 PM 12.2 °F -2.5 °F 8.6 °F 85% 30.10 in 1.5 mi NNE 12.7 mph - N/A Snow Light Snow
9:14 PM 10.4 °F -4.1 °F 8.6 °F 92% 30.10 in 2.5 mi NE 11.5 mph - N/A Snow Light Snow
9:34 PM 10.4 °F -4.1 °F 8.6 °F 92% 30.11 in 2.0 mi NNE 11.5 mph - N/A Snow Light Snow
9:55 PM 10.4 °F -4.1 °F 6.8 °F 85% 30.12 in 2.0 mi NNE 11.5 mph - N/A Snow Light Snow
10:14 PM 10.4 °F -3.3 °F 6.8 °F 85% 30.13 in 7.0 mi NNE 10.4 mph - N/A Snow Light Snow
10:34 PM 8.6 °F -4.7 °F 5.0 °F 85% 30.13 in 10.0 mi NNE 9.2 mph - N/A Snow Light Snow
10:55 PM 8.6 °F -4.7 °F 3.2 °F 79% 30.14 in 10.0 mi NNE 9.2 mph - N/A   Clear
11:14 PM 6.8 °F -5.9 °F 1.4 °F 79% 30.14 in 10.0 mi NNE 8.1 mph - N/A   Clear
11:35 PM 1.4 °F -12.5 °F -2.2 °F 85% 30.15 in 10.0 mi North 8.1 mph - N/A Snow Light Snow
11:55 PM 1.4 °F -13.5 °F -0.4 °F 92% 30.14 in 10.0 mi North 9.2 mph - N/A   Clear